Regional Weather Roundup
Issued by NWS Jackson, KY

Home | Current Version | Previous Version | Text Only | Print | Product List | Glossary On
Versions: 1 2 3 4 5 6 7 8 9 10 11 12 13 14 15 16 17 18 19 20 21 22 23 24 25 26 27 28 29 30 31 32 33 34 35 36 37 38 39 40 41 42 43 44 45 46 47 48 49 50
000
ASUS43 KJKL 300010
RWRJKL

EAST KENTUCKY HOURLY WEATHER ROUNDUP
NATIONAL WEATHER SERVICE JACKSON KY
800 PM EDT SUN MAR 29 2015

NOTE: "FAIR" INDICATES FEW OR NO CLOUDS BELOW 12,000 FEET WITH
NO SIGNIFICANT WEATHER AND/OR OBSTRUCTIONS TO VISIBILITY.

* THESE REPORTS ARE NOT UNDER NWS QUALITY CONTROL AND MAY NOT
  REPORT WEATHER SUCH AS PRECIPITATION AND FOG.

KYZ079-080-083-085-087-088-110-112-115-119-120-300100
...EASTERN KENTUCKY...

CITY           SKY/WX    TMP DP  RH WIND       PRES   REMARKS
JACKSON        PTCLDY    52   8  17 VRB5      30.02F
6HR MIN TEMP:  50; 6HR MAX TEMP:  58;

LONDON         CLEAR     55  11  17 S12       30.05F
6HR MIN TEMP:  51; 6HR MAX TEMP:  59;

SOMERSET*      CLOUDY    55  18  22 S15G21    30.05S
MONTICELLO*    PTCLDY    57  20  24 S13       30.07S
6HR MIN TEMP:  55; 6HR MAX TEMP:  63;

MIDDLESBORO*   CLEAR     54  15  21 S6        30.10F
6HR MIN TEMP:  49; 6HR MAX TEMP:  56;

HAZARD APT*    CLEAR     54   7  15 S7        30.04F
BLACK MTN*       N/A     37  12  35 S13         N/A  WCI  29
PIKEVILLE APT* CLEAR     52   5  15 S8G16     30.04F
BIG SANDY*     CLOUDY    53   9  16 S9        30.04F
6HR MIN TEMP:  46; 6HR MAX TEMP:  56;

MOREHEAD APT*  CLOUDY    54   7  15 S8G17     29.99F
$$

KYZ035-036-041-042-044-050-067-078-099-300100
...CENTRAL KENTUCKY...

CITY           SKY/WX    TMP DP  RH WIND       PRES   REMARKS
MT STERLING*   CLOUDY    54  16  22 SW12      29.99F
FLEMING/MASON* MOCLDY    52  16  24 S8        29.99R
DANVILLE*      CLOUDY    55  23  28 SW14G21   30.01S
RICHMOND*      CLOUDY    55  10  16 S14G23    29.99F
LEXINGTON      CLOUDY    56  17  21 SW14      29.99R
6HR MIN TEMP:  50; 6HR MAX TEMP:  57;

FRANKFORT      CLOUDY    56  16  20 SW15G22   29.98R
6HR MIN TEMP:  50; 6HR MAX TEMP:  58;

$$

KYZ091>093-OHZ055-061-077-WVZ005-015-034-035-042-300100
...SOUTHERN OHIO/WEST VIRGINIA...

CITY           SKY/WX    TMP DP  RH WIND       PRES   REMARKS
COVINGTON      CLOUDY    52  15  23 W6        30.00R
COLUMBUS       CLOUDY    46  12  25 S12       29.97S
DAYTON         RAIN      43  27  53 S22G31    29.93F
WILMINGTON     LGT RAIN  45  21  38 SW6       29.98R
HUNTINGTON     CLOUDY    51   7  16 S8        29.98F
CHARLESTON     CLOUDY    50   6  16 S3        30.04F
PINEVILLE*     CLOUDY    46  22  38 MISG      30.12F
BECKLEY        CLOUDY    46   2  16 S9        30.06F
BLUEFIELD      CLOUDY    48  -2  12 S8        30.09F
$$

VAZ002-007-008-TNZ017-027-036-066-071-300100
...SOUTHWEST VIRGINIA/EAST TENNESSEE...

CITY           SKY/WX    TMP DP  RH WIND       PRES   REMARKS
WISE*          PTCLDY    46   0  14 S14       30.10S
JONESVILLE*    PTCLDY    52  12  20 CALM      30.14S
ABINGDON*      PTCLDY    49   7  18 W3        30.11F
BRISTOL        MOCLDY    49  15  25 SW5       30.12F
KNOXVILLE      PTCLDY    54  22  28 SW10      30.13F
OAK RIDGE      CLEAR     56  20  24 SW8       30.14F
CROSSVILLE     CLOUDY    54  19  25 S9        30.12R
NASHVILLE      PTCLDY    58  34  40 S17G25    30.05F
$$

...KEY TO REMARKS...
VSB - VISIBILITY IN MILES
WCI - WIND CHILL INDEX
HX  - HEAT INDEX

$$


USA.gov is the U.S. government's official web portal to all federal, state and local government web resources and services.